Regional Weather Roundup
Issued by NWS Wilmington, NC

Home | Current Version | Previous Version | Text Only | Print | Product List | Glossary On
Versions: 1 2 3 4 5 6 7 8 9 10 11 12 13 14 15 16 17 18 19 20 21 22 23 24 25 26 27 28 29 30 31 32 33 34 35 36 37 38 39 40 41 42 43 44 45 46 47 48 49 50
682
ASUS42 KILM 221213
RWRILM
RWRILM
REGIONAL HOURLY WEATHER ROUNDUP
NATIONAL WEATHER SERVICE WILMINGTON NC
700 AM EST MON JAN 22 2018

NOTE: "FAIR" INDICATES FEW OR NO CLOUDS BELOW 12,000 FEET WITH NO
SIGNIFICANT WEATHER AND/OR OBSTRUCTIONS TO VISIBILITY.

...............WFO WILMINGTON COUNTY WARNING AREA...............

......COASTAL NC AND SC COUNTIES......

CITY           SKY/WX    TMP DP  RH WIND       PRES   REMARKS
WILMINGTON     FAIR      37  36  96 CALM      30.23R
N MYRTLE BEACH FAIR      37  36  96 NE5       30.19F WCI  33
MYRTLE BEACH   FAIR      40  37  89 CALM      30.21S

......INLAND NC AND SC COUNTIES.......

CITY           SKY/WX    TMP DP  RH WIND       PRES   REMARKS
LUMBERTON      FAIR      35  35 100 CALM      30.19F
ELIZABETHTOWN  NOT AVBL
WHITEVILLE     FAIR      37  35  94 CALM      30.20F
FLORENCE       FAIR      36  35  96 CALM      30.21R
DARLINGTON     FAIR      36  35  96 CALM      30.21R
KINGSTREE      FAIR      34  32  93 CALM      30.20R
HARTSVILLE     FAIR      36  36 100 CALM      30.19S
BENNETTSVILLE  FAIR      36  36 100 CALM      30.21R
CONWAY         FAIR      34  34 100 CALM      30.21S FOG
GEORGETOWN     FAIR      36  36 100 CALM      30.21S
MARION         FAIR      36  34  93 CALM      30.21R

....................REST OF NORTH CAROLINA......................

.........EASTERN NC.........

CITY           SKY/WX    TMP DP  RH WIND       PRES   REMARKS
CAPE HATTERAS  NOT AVBL
JACKSONVILLE   FAIR      35  34  96 CALM      30.23R
MOREHEAD CITY  FAIR      37  37 100 CALM      30.22F
KENANSVILLE    FAIR      34  34 100 CALM      30.22R
NEW BERN       FAIR      33  33 100 CALM      30.23S
ELIZABETH CITY FAIR      38  38 100 SE7       30.21R WCI  33

.........CENTRAL NC.........

CITY           SKY/WX    TMP DP  RH WIND       PRES   REMARKS
RALEIGH DURHAM MOCLDY    38  37  97 CALM      30.20R
ROCKY MOUNT    NOT AVBL
ROANOKE RAPIDS NOT AVBL
FAYETTEVILLE   FAIR      38  37  97 CALM      30.20R
HOFFMAN        FAIR      33  31  95 CALM      30.20S

.........WESTERN NC.........

CITY           SKY/WX    TMP DP  RH WIND       PRES   REMARKS
CHARLOTTE      MOCLDY    41  39  93 CALM      30.19R
GREENSBORO     MOCLDY    41  39  93 S5        30.17S
HICKORY        NOT AVBL
BOONE          NOT AVBL
ASHEVILLE      NOT AVBL

.....................REST OF SOUTH CAROLINA.....................

.........EASTERN SC.........

CITY           SKY/WX    TMP DP  RH WIND       PRES   REMARKS
CHARLESTON     MOCLDY    43  41  93 NE3       30.19S FOG
BEAUFORT MCAS  FAIR      44  43  96 CALM      30.18R
HILTON HEAD    CLEAR     45  43  93 NW3       30.18S

.........CENTRAL SC.........

CITY           SKY/WX    TMP DP  RH WIND       PRES   REMARKS
COLUMBIA       FAIR      38  37  97 CALM      30.18S
ORANGEBURG     FAIR      38  36  92 CALM      30.18R
SUMTER SHAW    FAIR      38  36  92 CALM      30.17R

.........WESTERN SC.........

CITY           SKY/WX    TMP DP  RH WIND       PRES   REMARKS
GREENVILLE     NOT AVBL
ROCK HILL      FAIR      36  34  92 N3        30.18S
ANDERSON       FAIR      42  40  92 CALM      30.16R
CLEMSON        NOT AVBL
GREENWOOD      FAIR      37  37 100 CALM      30.17S


...................COASTAL AND OFFSHORE REPORTS..................

................LOCAL PIERS AND NC RESERVE................


STATION/POSITION TIME  SKY/WX   TEMP    WIND        PRES    VSBY
                                AIR SEA DIR/SP/G
                 (UTC)          (F)     (DEG/KT/KT) (MB)    (MI)
JOHNY MRCER PIER 1142            45 49   20/  3/  3 1023.3R
NC RESRV MASNBRO 1045                   330/  1     1022.0
OCEAN CREST PIER NOT AVBL
SPRINGMAID  PIER 1142                               1025.3F


................COASTAL AND OFFSHORE BUOYS................


STATION/POSITION TIME  SKY/WX   TEMP    WIND        PRES    VSBY
                                AIR SEA DIR/SP/G
                 (UTC)          (F)     (DEG/KT/KT) (MB)    (MI)
DIMNDSHOAL 41025 1150            62 73   CALM  /  2 1023.7R
WVE H/P(F/S)=  1/10 SWL H/P/D(F/S/D)=  2/100/10

CAPE LOOKOUT     1200                   100/  2/  2 1023.6R
ONSLOW BAY 41036 NOT AVBL
ONSLOW BAY 41064 1108            56 59  360/  2/  2 1023.7R
ONSLOW BAY 41159 1200               59                N/A
WVE H/P(F/S)=  1/11

MASNBO INL 41110 1159               46                N/A
WVE H/P(F/S)=  1/10

WILM HARBR 41108 1200               48                N/A
WVE H/P(F/S)=  1/10

27SE WRITB 41037 1108            57 62   40/  4/  4 1023.2R
FRYING PAN 41013 1150            63 67   50/  8/  8 1022.6S
WVE H/P(F/S)=  1/10 SWL H/P/D(F/S/D)=  2/150/10

SUNST NRSH 41024 1108            45      80/  2/  2 1022.8R
CAPRS NRSH 41029 1108            46 50   50/  6/  8 1022.0R
EDISTO     41004 1150            67 70  110/  2/  4 1021.6F
WVE H/P(F/S)=  1/10 SWL H/P/D(F/S/D)=  2/130/10



..........OFFSHORE BUOYS BEYOND 100 NM OFFSHORE...........
.....IN A TRIANGLE---HAT TO BERMUDA TO BAHAMAS TO HAT.....


STATION/POSITION TIME  SKY/WX   TEMP    WIND        PRES    VSBY
                                AIR SEA DIR/SP/G
                 (UTC)          (F)     (DEG/KT/KT) (MB)    (MI)
150E HAT   41001 NOT AVBL
W BERMUDA  41048 1150            68 70  230/  6/  8 1024.6R
WVE H/P(F/S)=  3/ 7 SWL H/P/D(F/S/D)=  3/310/ 7

ATLANTIC S 41049 1150            67 76  130/ 12/ 14 1024.2R
WVE H/P(F/S)=  6/10 SWL H/P/D(F/S/D)=  5/ 40/10

E BAHAMAS  41046 1150            77 78   90/ 17/ 21 1020.3R
WVE H/P(F/S)=  7/ 6 SWL H/P/D(F/S/D)=  3/ 70/10

NE BAHAMAS 41047 1150            72     100/ 12/ 16 1022.9R
WVE H/P(F/S)=  5/ 9 SWL H/P/D(F/S/D)=  3/ 90/ 9

120E CANVRL41010 NOT AVBL

END




USA.gov is the U.S. government's official web portal to all federal, state and local government web resources and services.